GEFSNE_500_meanwind_138.txt.gz
Wind_Speed
10 10 9 8 7 8 6 5 4 3 2 1 1 0 1 2 3 4 6 7 8 9 9 11 12 13 13 15 16 17 18 18 18 19 20 20 20 20
10 10 9 9 8 8 8 6 5 4 3 2 2 2 2 3 4 5 6 7 8 9 10 11 12 14 15 16 17 17 18 20 21 21 21 22 22 22
9 9 9 9 8 8 7 6 5 5 4 3 3 4 4 5 5 6 7 8 9 10 11 12 13 15 16 17 18 19 19 20 21 23 23 23 23 24
7 8 8 8 8 7 7 7 6 5 5 5 5 5 6 7 8 8 9 10 11 12 13 13 14 16 17 18 19 20 20 21 22 23 24 24 25 26
7 7 7 7 7 7 8 7 7 7 7 7 7 8 9 9 10 11 12 13 13 14 15 16 17 17 19 20 21 22 23 23 24 24 26 27 27 28
7 7 7 7 7 8 9 9 9 9 10 10 9 10 11 12 12 14 15 16 17 18 19 20 20 21 22 23 24 25 25 25 26 26 27 28 29 30
7 7 7 8 9 10 10 11 11 12 12 12 13 13 14 14 15 17 18 18 19 20 21 23 24 24 25 26 26 27 28 29 29 29 30 31 32 34
9 8 9 10 11 12 12 13 13 14 14 15 15 15 16 17 18 20 21 21 22 23 24 25 26 27 28 28 29 29 30 31 32 33 33 34 35 36
10 10 11 12 13 14 14 15 15 16 16 17 18 19 19 19 20 21 22 23 25 25 26 27 28 29 30 31 31 32 33 34 35 36 37 37 38 38
12 12 13 14 15 16 16 17 18 18 19 20 21 21 21 22 22 23 24 25 26 27 28 28 29 30 32 33 34 35 36 37 37 38 39 40 40 41
15 15 16 17 18 18 19 20 20 21 22 23 24 24 24 24 24 25 26 27 28 29 30 30 31 32 33 34 36 37 38 39 40 40 41 42 42 43
17 18 19 19 20 21 21 22 23 24 25 26 26 26 27 27 28 28 28 29 30 31 31 32 33 34 34 36 38 39 40 41 42 43 44 45 46 46
20 21 22 22 23 23 23 24 25 26 27 28 28 28 29 30 31 31 32 32 33 33 33 34 35 36 38 39 40 42 43 45 46 47 47 48 49 50
23 24 24 25 25 26 26 27 28 28 29 30 30 31 31 32 32 33 34 35 35 36 36 38 39 40 42 43 44 45 47 48 50 51 51 52 53 53
25 26 26 27 28 29 29 30 30 31 32 33 33 33 34 34 35 36 37 37 38 38 40 42 43 44 45 46 47 48 49 51 53 54 55 56 57 57
28 28 29 30 31 32 32 33 33 33 34 35 36 36 37 38 38 39 39 40 41 41 43 44 46 47 47 48 49 50 52 53 55 56 57 58 59 60
31 32 33 33 34 35 35 36 36 36 37 38 39 40 40 41 41 42 42 43 44 44 45 47 49 50 51 52 53 54 55 56 57 57 58 59 60 61
34 35 36 36 37 38 38 38 39 39 40 41 42 43 43 44 44 45 46 47 48 48 49 50 52 53 54 55 56 57 57 57 57 58 59 59 59 59
37 38 38 39 40 40 41 41 41 42 43 44 45 45 46 47 47 48 49 50 51 52 53 54 55 57 57 57 57 58 59 59 59 59 59 60 59 59
40 41 41 42 43 43 44 44 45 46 46 47 48 48 49 50 51 52 53 53 54 55 56 57 58 59 60 60 59 58 59 60 60 59 59 59 59 58
43 43 44 45 46 46 47 47 48 48 49 50 51 51 52 53 54 55 55 56 57 58 59 59 60 61 61 61 60 59 58 59 59 59 58 58 57 57
46 46 47 48 49 49 49 50 50 51 52 53 53 54 55 56 56 57 58 58 59 60 61 61 61 61 62 62 62 60 58 57 57 58 58 58 58 57
48 49 50 50 51 52 52 53 53 54 54 55 55 56 57 57 58 59 60 61 61 61 62 62 62 62 63 63 62 61 59 57 57 56 55 56 57 56

GEFSNE_500_meanwind_144.txt.gz
Wind_Speed
9 8 9 8 7 7 6 5 4 3 2 1 1 1 2 3 4 5 5 6 7 8 8 9 10 10 10 11 12 13 13 14 14 15 16 17 18 19
8 8 7 8 8 7 6 5 4 4 3 2 1 2 3 4 6 6 6 7 8 8 9 10 11 11 12 13 13 14 15 16 16 17 17 18 20 21
6 6 6 7 7 6 6 5 4 4 4 3 3 5 6 6 7 6 7 7 8 8 9 10 11 12 13 14 15 16 16 17 18 19 19 20 21 22
5 5 6 6 6 6 6 5 5 5 5 5 6 6 6 7 8 7 8 9 10 10 11 12 13 14 15 16 16 17 18 19 20 21 22 22 23 24
4 5 5 5 5 5 6 6 6 6 7 7 8 8 8 8 8 8 10 11 11 12 14 15 16 17 17 18 19 20 21 22 23 23 24 25 26 26
4 4 4 5 5 5 6 6 7 8 9 9 10 10 10 10 10 11 13 14 14 15 17 18 19 20 20 21 22 23 24 25 26 27 28 28 28 29
5 5 5 6 6 7 7 8 9 10 11 11 12 13 13 13 14 14 15 16 18 19 20 21 22 22 23 24 25 26 27 28 28 29 30 31 31 32
7 7 7 8 8 9 10 10 11 12 13 14 14 15 16 16 17 17 18 19 20 21 22 23 24 25 26 27 28 28 29 30 31 32 33 34 34 35
9 9 9 10 10 11 12 13 13 13 15 15 16 17 17 18 19 19 20 21 22 23 24 25 25 26 28 29 30 30 31 32 33 34 35 36 37 38
11 11 11 12 12 13 14 15 15 16 17 17 18 19 19 20 21 22 23 24 24 25 26 26 27 28 29 31 32 33 34 34 35 36 37 38 39 41
13 13 14 14 15 16 16 17 17 18 19 19 21 21 22 23 24 24 25 26 27 27 28 28 29 30 31 33 35 36 37 37 38 39 40 41 41 43
15 16 16 17 17 18 19 20 20 20 21 22 23 24 25 26 26 27 28 28 29 29 30 31 32 32 32 34 36 38 39 40 41 41 42 44 45 46
18 18 19 19 20 21 22 22 22 23 24 25 26 27 28 28 29 30 31 31 31 32 33 33 34 35 36 37 38 39 41 42 43 44 46 47 48 49
21 21 22 23 23 24 24 25 25 26 27 28 29 30 31 31 32 33 34 34 35 36 37 38 38 39 40 41 41 42 43 45 46 48 49 50 51 52
24 25 25 26 26 26 27 27 28 29 30 31 32 33 33 34 35 36 37 38 39 39 40 40 41 42 43 44 45 46 47 47 49 50 51 53 55 56
27 27 28 28 29 29 29 30 31 32 34 34 35 36 37 38 39 39 40 40 41 42 43 44 44 45 46 47 48 49 50 51 51 53 54 55 57 58
29 30 30 31 31 32 33 34 35 36 37 37 38 39 40 41 42 42 43 43 44 45 45 46 48 49 49 51 51 53 54 54 55 56 57 57 57 59
32 33 34 34 35 35 36 37 38 39 40 41 42 43 43 44 44 45 46 47 47 48 49 50 51 52 52 53 55 56 57 57 58 59 60 59 58 58
35 36 37 37 38 39 40 41 42 43 43 44 45 46 46 47 48 48 49 50 50 51 51 52 53 55 56 56 56 58 59 60 60 59 60 60 59 59
39 39 40 41 41 42 43 44 45 46 47 47 48 49 49 50 51 51 52 53 53 53 54 55 56 57 59 59 59 59 60 61 61 61 60 60 60 59
42 42 43 44 45 46 46 47 48 49 50 50 51 51 52 53 54 55 55 56 56 57 57 58 59 60 61 62 61 60 60 61 61 61 61 61 60 59
45 45 46 47 47 48 49 50 51 51 52 52 53 54 55 56 57 58 58 59 60 60 60 61 62 62 62 62 62 61 60 60 60 61 62 62 62 60
47 48 49 50 50 51 52 52 53 54 54 55 56 57 57 58 59 60 61 61 62 62 63 63 62 62 63 63 63 62 61 61 61 61 60 60 60 59

GEFSNE_500_meanwind_150.txt.gz
Wind_Speed
6 6 6 5 5 4 4 3 3 2 2 1 0 2 2 3 4 5 6 6 6 6 7 7 8 8 8 9 10 10 11 11 11 12 13 13 14 15
7 6 6 5 5 5 4 4 3 2 2 2 1 1 2 3 4 5 6 6 6 7 7 7 8 8 9 10 11 12 13 13 13 14 15 16 16 17
5 5 5 5 4 4 4 3 3 2 2 2 2 3 3 4 4 5 6 6 7 8 8 9 10 11 11 11 12 13 14 15 15 16 17 18 18 19
4 3 3 4 3 3 3 3 3 3 3 3 3 4 5 5 5 6 6 7 8 9 10 10 12 13 13 13 14 15 16 16 18 19 19 20 21 22
3 2 2 2 3 2 2 3 3 4 5 4 5 6 7 7 8 8 8 9 10 10 11 12 13 14 15 16 17 18 19 20 20 21 22 23 24 25
3 3 3 3 3 3 4 4 5 5 6 6 7 8 9 10 10 10 11 11 12 12 13 15 16 17 18 20 20 21 21 22 23 24 25 26 27 28
5 5 5 5 5 5 5 6 6 7 8 9 9 10 11 11 12 12 13 13 14 15 17 18 19 20 21 22 22 23 24 25 26 27 28 29 30 31
6 6 6 7 7 8 8 8 9 10 10 11 11 12 13 13 14 14 15 15 16 17 18 19 20 21 22 23 24 25 27 28 29 30 31 32 33 34
8 8 9 9 10 10 10 10 11 12 13 13 14 15 15 16 16 17 17 18 19 19 20 22 23 24 25 26 27 28 29 30 31 32 33 34 36 37
11 11 11 11 12 12 12 13 14 14 15 16 16 17 17 18 19 19 20 20 21 22 23 25 26 27 28 29 30 31 32 33 34 35 37 38 39 39
13 13 13 14 14 14 15 15 16 16 17 18 19 19 20 21 21 22 23 24 24 26 27 28 28 29 30 31 32 33 35 36 37 38 39 40 41 42
16 16 16 17 17 17 17 18 18 19 19 20 21 22 23 23 24 25 26 27 28 29 30 31 32 32 33 34 35 36 37 38 39 40 41 42 43 44
18 19 19 19 20 20 21 21 21 22 22 23 24 25 26 27 27 28 29 30 31 32 33 34 35 36 36 37 38 39 40 41 42 43 44 45 46 46
21 21 22 22 23 23 23 24 24 25 26 26 27 28 29 29 30 31 32 33 34 35 36 37 38 39 40 40 41 42 43 44 45 46 47 48 49 50
23 24 24 25 26 26 26 27 27 28 29 30 30 31 32 33 34 34 35 36 37 38 39 40 41 42 43 44 45 46 46 47 49 50 50 51 52 53
25 26 27 27 28 28 29 29 30 31 32 33 33 34 35 36 36 37 38 39 40 42 43 44 45 46 46 47 48 49 50 50 51 52 52 53 54 55
27 28 28 29 30 30 31 32 33 34 35 36 37 38 38 39 39 40 41 42 44 45 46 47 48 49 50 51 51 51 52 52 53 54 54 54 55 55
29 29 30 31 32 33 34 35 36 37 37 38 39 40 41 41 42 43 44 45 47 48 49 50 51 52 52 53 53 54 54 54 55 55 56 56 55 56
31 32 33 34 35 36 36 37 38 39 40 41 42 43 43 44 45 46 47 48 49 50 52 53 53 54 54 54 55 56 56 57 57 57 57 57 57 57
34 34 35 36 37 38 38 39 40 41 42 43 44 45 46 47 48 49 50 51 52 53 54 55 55 55 56 57 57 57 58 58 58 58 59 59 59 59
37 37 38 39 39 40 41 42 43 44 45 46 47 48 49 50 51 52 53 54 55 56 56 56 57 58 58 59 59 58 58 59 60 60 61 60 60 59
40 40 41 42 42 43 44 45 45 46 47 48 49 50 51 53 54 55 56 57 57 58 58 59 59 60 60 60 60 60 59 60 60 60 60 60 60 58
42 43 44 45 45 46 47 48 48 49 50 51 52 53 54 55 56 57 57 58 59 59 60 61 61 61 61 61 61 61 60 60 59 59 58 58 58 58

GEFSNE_500_meanwind_156.txt.gz
Wind_Speed
5 5 4 3 4 4 3 3 3 2 2 2 2 3 4 5 5 5 4 4 4 5 6 6 6 7 7 8 8 9 10 10 11 11 11 12 13 13
5 5 5 4 4 4 4 4 4 3 3 3 4 4 5 5 5 6 6 5 4 5 7 7 7 7 8 10 10 10 11 11 12 13 13 13 15 15
4 4 4 4 3 3 3 3 4 4 4 4 4 5 5 6 6 6 7 6 6 6 8 8 9 9 9 11 11 11 12 13 14 14 15 15 15 16
3 3 3 3 3 3 3 3 4 4 4 4 5 5 6 6 7 7 7 8 8 8 8 9 10 11 11 12 13 13 13 14 15 16 17 17 17 17
4 4 4 3 3 3 3 4 4 5 5 5 6 6 6 7 8 8 9 9 10 10 10 11 12 12 13 14 15 15 15 16 17 18 18 19 20 20
5 5 5 4 4 4 5 5 5 6 6 7 8 8 8 8 9 10 10 11 11 12 12 13 13 15 15 16 17 18 18 18 19 20 21 22 23 24
6 6 6 6 6 6 6 7 7 8 8 9 9 10 10 11 11 12 12 12 13 13 14 15 16 17 17 18 19 20 20 21 21 22 23 24 25 27
8 8 8 8 7 7 8 8 9 9 10 11 11 12 13 13 14 14 14 14 15 16 17 18 18 19 20 21 22 22 23 23 24 25 26 27 28 30
10 9 9 9 9 10 10 10 11 12 13 14 14 15 15 16 16 16 17 17 18 18 19 20 21 21 23 24 25 26 27 27 28 29 29 30 31 32
11 11 11 11 12 12 13 13 14 14 15 16 16 17 17 18 18 18 19 20 20 21 22 22 23 25 26 27 28 29 29 30 31 31 32 33 34 35
14 13 14 14 15 15 16 16 16 17 17 18 18 19 20 21 21 22 22 23 24 25 26 26 27 28 29 30 31 32 33 33 34 34 35 36 37 38
16 16 17 17 18 18 18 19 19 19 20 21 21 22 23 23 24 25 25 26 27 28 29 30 31 31 31 32 34 35 35 36 37 37 38 39 40 41
17 18 19 20 20 21 21 21 22 22 23 23 24 25 25 26 26 27 28 29 30 31 32 33 34 34 35 35 36 37 38 39 40 40 41 42 44 45
20 20 21 22 23 23 23 24 24 25 25 26 26 27 28 29 29 30 31 32 33 34 35 36 36 37 38 39 39 40 41 42 43 43 44 45 46 47
22 23 23 23 24 25 26 26 27 27 28 29 29 30 31 31 32 33 33 34 35 36 37 39 40 41 41 42 43 43 44 45 46 46 46 47 48 49
24 24 24 25 26 27 28 28 29 29 30 31 32 32 33 34 35 35 36 37 38 39 40 41 42 43 44 45 45 46 47 48 48 48 48 49 50 51
26 26 27 28 28 29 30 30 31 32 33 34 34 35 36 37 37 38 39 40 41 42 42 43 44 45 46 47 48 49 49 50 50 51 51 52 52 52
29 29 30 30 31 32 32 32 33 34 35 36 36 38 39 40 40 41 42 43 44 44 45 46 48 49 49 49 51 51 51 52 52 53 54 54 53 53
31 31 32 33 34 34 35 35 36 37 38 38 39 40 41 42 43 44 44 45 46 47 49 50 51 52 52 52 52 53 54 54 55 55 55 55 55 54
33 34 35 36 36 37 38 38 39 40 40 41 41 42 43 44 45 46 47 48 49 50 52 53 53 54 54 55 54 54 55 56 56 56 56 56 55 55
36 37 37 38 39 39 40 40 41 42 43 44 45 45 46 47 48 49 51 52 53 54 54 54 54 55 55 56 56 55 56 57 58 57 57 56 55 54
38 39 39 40 41 42 43 43 44 45 46 47 47 48 49 51 52 53 54 55 56 56 56 56 56 56 57 57 57 57 57 57 57 56 56 56 56 55
40 41 41 42 43 44 45 46 47 47 48 49 50 51 52 53 54 55 56 56 57 57 58 58 58 58 59 60 59 59 58 58 57 56 55 56 56 56

GEFSNE_500_meanwind_162.txt.gz
Wind_Speed
3 3 3 3 3 3 3 2 2 2 2 2 2 2 2 3 3 3 3 3 3 3 3 4 5 6 7 8 9 10 11 11 12 12 12 13 13 14
2 2 2 2 2 2 2 2 2 2 2 2 3 2 3 4 4 4 3 3 3 4 5 5 6 7 7 8 9 10 11 12 12 13 14 14 14 15
2 1 1 1 1 1 1 1 1 1 2 3 3 4 4 4 4 4 4 4 5 5 5 6 7 7 8 9 10 11 12 12 13 13 14 15 15 16
2 2 1 1 1 1 1 1 1 2 2 3 4 5 5 5 6 6 6 6 6 6 7 8 9 9 10 10 11 12 13 14 15 15 16 17 18 19
3 3 3 3 2 2 2 2 3 3 4 4 5 6 6 7 7 7 7 8 8 9 9 10 11 12 13 13 13 14 15 15 16 17 18 19 21 21
4 3 4 4 4 3 4 4 4 5 5 6 6 6 7 8 8 9 9 10 11 11 12 13 13 14 15 16 16 17 18 18 19 20 21 22 24 24
5 5 5 6 5 5 6 6 6 7 8 8 8 9 9 10 11 11 12 12 13 14 15 15 16 17 18 19 19 20 20 21 22 23 24 25 26 27
8 7 7 7 7 8 8 9 9 9 10 10 11 11 12 13 13 14 14 15 16 17 17 18 19 20 20 21 22 23 23 24 24 25 26 27 28 30
9 9 9 9 10 10 10 11 11 12 12 13 13 14 15 15 16 16 17 17 18 19 20 21 22 22 23 24 25 25 26 27 28 28 29 30 31 32
11 11 11 12 12 12 12 12 13 14 15 16 16 17 17 18 19 19 19 20 21 21 22 23 24 25 26 27 28 29 29 30 31 31 32 33 34 35
14 13 14 13 14 14 15 16 16 17 18 18 19 20 20 21 21 22 23 23 24 24 25 26 27 28 29 30 31 32 32 33 34 35 35 36 37 37
15 15 16 16 17 17 17 18 19 20 20 21 22 23 23 24 24 24 25 26 26 27 28 29 30 30 31 32 33 34 35 36 36 37 37 38 39 39
16 16 17 18 19 20 20 20 21 22 23 24 25 25 26 26 27 27 28 28 29 30 31 32 32 33 34 34 35 37 37 38 38 39 40 40 41 42
18 18 19 19 20 21 22 23 23 24 25 26 27 27 28 29 29 30 30 31 32 33 34 34 35 36 36 37 37 38 40 40 41 42 43 43 43 44
20 21 21 22 23 23 24 24 25 26 26 27 28 29 30 31 32 33 33 34 34 35 36 36 37 38 39 39 40 41 42 43 44 45 45 46 46 46
24 24 24 24 25 26 27 28 28 28 29 29 30 31 32 32 34 34 35 36 37 38 39 39 40 41 41 42 43 44 45 46 47 47 47 48 48 48
26 26 26 27 28 28 29 30 30 31 32 32 33 33 34 35 36 37 38 39 40 41 41 42 43 44 45 46 47 47 48 49 49 49 50 50 50 51
28 28 29 30 31 31 32 32 33 34 35 35 36 37 37 38 39 40 41 42 43 43 44 45 47 48 49 49 50 50 51 51 51 52 52 53 52 53
29 30 30 31 32 33 34 35 36 37 38 38 39 40 41 42 43 43 44 45 46 46 47 49 50 51 51 51 52 53 53 53 54 55 55 56 56 55
30 31 32 32 33 35 36 37 38 39 40 41 42 43 44 45 46 46 47 48 49 49 50 51 52 53 53 54 54 55 56 57 57 57 57 58 58 57
31 32 33 35 36 37 38 39 39 40 42 43 44 45 47 48 48 49 50 51 52 52 53 54 55 56 57 57 57 58 59 59 59 59 59 58 57 57
34 35 36 37 38 39 40 41 42 43 44 46 47 48 49 50 51 52 53 54 54 55 56 57 58 59 60 60 60 60 60 61 60 60 60 60 59 58
37 38 39 40 41 42 43 44 45 46 47 48 49 50 51 53 53 54 55 56 57 58 59 59 60 61 62 62 62 62 61 61 60 60 59 60 60 58

GEFSNE_500_meanwind_168.txt.gz
Wind_Speed
1 1 1 1 1 1 1 1 2 2 2 3 4 5 4 4 4 4 4 4 4 4 5 6 6 7 7 8 8 9 9 9 10 11 11 12 13 13
1 2 2 2 2 2 2 2 2 3 3 4 4 5 5 5 5 5 5 5 5 6 6 6 7 7 8 9 10 11 11 11 11 12 13 14 15 15
2 3 3 3 3 3 3 3 3 4 4 4 5 5 5 5 5 6 7 7 7 8 8 9 9 10 10 10 11 12 13 13 13 14 14 15 16 17
3 3 4 4 4 4 4 5 5 5 5 5 6 6 6 7 7 8 8 9 9 10 11 11 11 12 12 13 13 13 14 14 15 15 15 16 17 18
5 5 4 4 5 5 5 5 6 6 6 6 7 8 8 8 9 10 10 11 11 12 12 13 13 14 14 15 15 16 16 17 17 18 19 19 19 20
6 6 6 6 6 6 6 7 7 7 8 8 9 9 10 10 11 11 12 13 13 14 14 15 15 16 16 16 17 17 18 19 20 20 21 22 22 23
8 8 7 8 8 8 9 9 9 9 10 10 11 12 12 13 13 14 15 15 16 16 17 17 18 18 19 19 19 20 21 21 22 22 23 24 25 26
9 9 9 9 9 9 10 11 11 12 12 13 13 14 15 16 16 17 17 18 18 19 19 20 20 21 21 22 22 23 23 24 24 25 26 26 27 28
11 11 11 10 10 11 12 12 13 14 15 15 16 17 18 19 19 20 20 20 21 21 21 22 23 23 24 24 25 25 26 26 27 27 28 29 30 31
13 12 12 13 13 14 14 15 15 16 17 18 19 19 20 21 21 22 22 23 23 24 24 24 26 26 27 27 28 29 29 30 30 31 31 32 33 33
14 14 14 14 15 16 17 17 18 19 20 21 22 22 23 23 24 25 26 26 26 27 27 28 28 29 30 31 31 32 33 33 34 34 35 35 36 36
14 15 16 16 17 18 19 19 19 20 21 22 24 24 25 26 26 27 28 28 29 29 30 30 31 31 31 32 34 35 35 36 36 37 38 38 38 39
17 17 18 18 19 19 20 21 21 22 23 25 25 26 26 27 27 28 29 30 31 31 32 32 33 34 34 35 35 37 38 38 39 39 40 41 41 42
18 18 19 19 21 22 22 23 24 24 25 26 27 28 28 29 29 29 30 32 32 33 34 35 36 36 37 37 38 38 40 41 41 42 42 43 44 44
20 20 21 22 23 24 25 25 26 27 28 29 30 30 30 31 31 32 34 34 35 36 37 37 38 38 39 40 40 41 42 42 44 44 45 46 46 47
22 23 24 25 26 26 27 28 28 29 30 31 32 33 34 34 35 36 36 37 38 39 40 40 41 42 42 42 43 44 45 45 46 47 48 49 49 50
24 25 25 26 27 28 29 30 31 32 32 33 34 36 36 37 38 38 39 40 40 41 42 43 44 45 45 46 46 47 48 49 49 50 50 51 52 53
26 26 27 28 30 31 31 32 33 34 35 35 36 37 37 38 40 41 42 43 43 44 45 46 47 47 48 49 50 51 51 52 53 54 54 54 54 55
26 27 29 30 31 32 33 33 34 35 36 37 37 38 40 41 42 43 44 45 45 46 47 48 49 50 50 51 52 54 54 55 56 56 57 57 56 56
29 30 31 32 32 33 34 35 36 37 38 39 40 41 42 43 44 45 46 47 48 49 50 50 51 52 52 53 53 54 56 57 58 58 58 58 58 59
31 33 33 34 34 35 36 37 38 38 40 41 42 43 44 46 47 47 48 50 51 51 52 53 54 55 56 56 56 57 58 59 60 60 60 60 60 59
33 34 35 36 37 37 38 39 40 41 42 43 44 45 47 48 48 49 51 52 53 53 54 55 56 57 58 58 59 59 60 61 61 62 62 62 60 59
35 36 37 37 38 39 40 41 42 43 44 45 46 47 48 49 50 51 53 53 54 55 55 56 57 59 59 60 61 61 61 61 62 62 61 61 59 58